TG5ALY-15 Weather Reports


time (UTC)temp
F
wind
direction
speed
knots
gust
knots
rain 1hr
in
rain 24hr
in
rain mn
in
humidity
%
barometer
mb
20260504081754 52 150 0.0 0.0 0.00 0.00 0.00 94 1029.9
20260504045738 52 96 3.5 3.5 0.00 2.88 2.88 97 1032.1
20260504043737 52 60 0.0 0.0 0.00 2.88 2.88 97 1032.1
20260504041735 53 114 1.7 1.7 0.00 2.88 2.88 97 1032.6
20260504035733 54 120 0.0 0.0 0.00 2.88 2.88 97 1032.6
20260504033729 54 84 0.0 0.0 0.00 2.88 2.88 97 1032.6
20260504031727 55 84 3.5 3.5 0.00 2.88 2.88 97 1032.1
20260504025726 55 54 1.7 1.7 0.00 2.88 2.88 97 1032.1
20260504023726 54 180 0.0 0.0 0.00 2.88 2.88 97 1032.6
20260504021723 54 180 0.0 0.0 0.00 2.88 2.88 97 1032.6
20260504015722 53 180 0.0 0.0 0.91 2.88 2.88 97 1032.1
20260504013720 54 66 1.7 1.7 0.91 2.88 2.88 97 1032.6
20260504010858 56 342 3.5 3.5 0.18 0.28 0.28 90 1031.7
20260504004856 56 342 3.5 3.5 0.18 0.28 0.28 90 1031.7
20260504002854 58 318 1.7 1.7 0.03 0.12 0.12 89 1031.7
20260504000854 58 239 1.7 1.7 0.00 0.09 0.09 86 1030.8
20260503234850 60 240 1.7 1.7 0.06 0.09 0.09 86 1030.4
20260503232849 60 300 4.3 5.2 0.06 0.09 0.09 84 1029.9
20260503230849 64 18 7.0 7.0 0.00 0.03 0.03 68 1029.2
20260503224848 67 60 1.7 1.7 0.00 0.03 0.03 58 1028.3
20260503222847 68 78 4.3 5.2 0.00 0.03 0.03 54 1028.7
20260503220844 70 66 5.2 5.2 0.00 0.03 0.03 50 1028.3
20260503214838 71 54 6.1 7.0 0.00 0.03 0.03 47 1028.7
20260503212838 71 114 4.3 5.2 0.00 0.03 0.03 45 1028.7
20260503210837 70 60 2.6 2.6 0.00 0.03 0.03 46 1029.2
20260503204834 70 90 5.2 6.1 0.00 0.03 0.03 49 1029.2
20260503202829 71 30 3.5 3.5 0.00 0.03 0.03 47 1029.2
20260503200825 70 349 5.2 5.2 0.00 0.03 0.03 50 1029.5
20260503194824 69 126 5.2 5.2 0.00 0.03 0.03 53 1029.5
20260503192820 67 90 5.2 6.1 0.00 0.03 0.03 59 1030.4
20260503190817 67 108 2.6 2.6 0.00 0.03 0.03 59 1030.8
20260503184813 67 318 3.5 3.5 0.00 0.03 0.03 61 1031.3
20260503182812 66 25 7.0 7.8 0.00 0.03 0.03 65 1031.3
20260503180807 67 36 4.3 4.3 0.00 0.03 0.03 64 1031.7
20260503174806 65 355 5.2 5.2 0.00 0.03 0.03 69 1032.1
20260503172804 67 312 11.3 12.2 0.00 0.03 0.03 65 1031.7
20260503170803 67 329 9.6 11.3 0.00 0.03 0.03 59 1032.1
20260503150755 64 342 1.7 1.7 0.00 0.03 0.03 68 1031.3
20260503130754 57 48 3.5 4.3 0.00 0.03 0.03 83 1031.3
20260503110732 57 342 3.5 4.3 0.00 0.03 0.03 91 1030.8